Location: Cicognara
(44.9500°N, 10.4667°E)
Time: 22:39:59
(UTC+00:00)

Cosmos 1486 Rocket - Pass Details

Date: 20 June 2021
Orbit: 759 x 783 km, 74.1° (Epoch: 23 July)

Event Time Altitude Azimuth Distance (km) Brightness Sun altitude
Rises 21:28:49 0° 338° (NNW) 3,236 9.0 -17.1°
Reaches altitude 10° 21:31:12 10° 338° (NNW) 2,303 7.8 -17.3°
Maximum altitude 21:36:26 85° 251° (WSW) 769 3.9 -17.7°
Enters shadow 21:38:54 32° 165° (SSE) 1,281 4.6 -17.8°
